• In Netherlands
  • List of Countries
  • For 7 days
  • Water Temperature
  • Satellite Maps
  • Weather Map
  • Weather Widgets
  • user-avatar
    Login

    Hourly Weather Mons

    Today, 23 August, Wednesday

    Time Temperature Precipitation Wind Pressure Humidity
    00:00 +18°C° 0 mm 3 mps 759 mmHg 73%
    01:00 +18°C° 0 mm 3 mps 759 mmHg 73%
    02:00 +17°C° 0 mm 3 mps 759 mmHg 72%
    03:00 +17°C° 0 mm 3 mps 758 mmHg 72%
    04:00 +17°C° 0 mm 3 mps 758 mmHg 73%
    05:00 +17°C° 0 mm 3 mps 758 mmHg 74%
    06:00 +17°C° 0 mm 3 mps 758 mmHg 74%
    07:00 +19°C° 0 mm 3 mps 758 mmHg 70%
    08:00 +21°C° 0 mm 4 mps 758 mmHg 66%
    09:00 +23°C° 0 mm 4 mps 758 mmHg 62%
    10:00 +26°C° 0 mm 4 mps 758 mmHg 59%
    11:00 +27°C° 0 mm 4 mps 757 mmHg 57%
    12:00 +29°C° 0 mm 4 mps 757 mmHg 55%
    13:00 +29°C° 0 mm 4 mps 757 mmHg 56%
    14:00 +29°C° 0 mm 4 mps 757 mmHg 57%
    15:00 +29°C° 0 mm 4 mps 757 mmHg 58%
    16:00 +27°C° 0 mm 4 mps 757 mmHg 64%
    17:00 +26°C° 0 mm 4 mps 757 mmHg 70%
    18:00 +23°C° 0 mm 5 mps 757 mmHg 76%
    19:00 +21°C° 0 mm 4 mps 758 mmHg 78%
    20:00 +19°C° 0 mm 4 mps 758 mmHg 80%
    21:00 +18°C° 0 mm 4 mps 758 mmHg 81%
    22:00 +17°C° 0 mm 3 mps 759 mmHg 84%
    23:00 +17°C° 0 mm 3 mps 759 mmHg 87%

    Tomorrow, 24 August, Thursday

    Time Temperature Precipitation Wind Pressure Humidity
    00:00 +16°C° 0 mm 3 mps 759 mmHg 90%
    01:00 +16°C° 0 mm 3 mps 759 mmHg 91%
    02:00 +14°C° 0 mm 3 mps 759 mmHg 92%
    03:00 +14°C° 0 mm 3 mps 759 mmHg 94%
    04:00 +14°C° 0 mm 3 mps 760 mmHg 93%
    05:00 +16°C° 0 mm 3 mps 760 mmHg 93%
    06:00 +16°C° 0 mm 3 mps 760 mmHg 92%
    07:00 +17°C° 0 mm 3 mps 760 mmHg 86%
    08:00 +19°C° 0 mm 3 mps 760 mmHg 81%
    09:00 +20°C° 0 mm 3 mps 760 mmHg 75%
    10:00 +21°C° 0 mm 3 mps 760 mmHg 71%
    11:00 +21°C° 0 mm 3 mps 761 mmHg 67%
    12:00 +22°C° 0 mm 3 mps 761 mmHg 63%
    13:00 +22°C° 0 mm 3 mps 760 mmHg 62%
    14:00 +24°C° 0 mm 3 mps 760 mmHg 61%
    15:00 +24°C° 0 mm 3 mps 760 mmHg 60%
    16:00 +23°C° 0 mm 2 mps 760 mmHg 64%
    17:00 +21°C° 0 mm 2 mps 760 mmHg 68%
    18:00 +20°C° 0 mm 2 mps 760 mmHg 72%
    19:00 +20°C° 0 mm 1 mps 761 mmHg 76%
    20:00 +19°C° 0 mm 1 mps 761 mmHg 80%
    21:00 +16°C° 0 mm 1 mps 761 mmHg 84%
    22:00 +16°C° 0 mm 1 mps 761 mmHg 86%
    23:00 +15°C° 0 mm 1 mps 761 mmHg 87%

    Day after tomorrow, 25 August, Friday

    Time Temperature Precipitation Wind Pressure Humidity
    00:00 +14°C° 0 mm 0 mps 761 mmHg 88%
    01:00 +14°C° 0 mm 0 mps 761 mmHg 88%
    02:00 +14°C° 0 mm 0 mps 761 mmHg 89%
    03:00 +13°C° 0 mm 0 mps 761 mmHg 89%
    04:00 +14°C° 0 mm 0 mps 761 mmHg 88%
    05:00 +14°C° 0 mm 0 mps 760 mmHg 87%
    06:00 +16°C° 0 mm 1 mps 760 mmHg 87%
    07:00 +19°C° 0 mm 1 mps 760 mmHg 80%
    08:00 +21°C° 0 mm 1 mps 761 mmHg 72%
    09:00 +22°C° 0 mm 1 mps 761 mmHg 65%
    10:00 +24°C° 0 mm 1 mps 760 mmHg 60%
    11:00 +25°C° 0 mm 1 mps 760 mmHg 55%
    12:00 +26°C° 0 mm 1 mps 760 mmHg 50%
    13:00 +26°C° 0 mm 1 mps 759 mmHg 49%
    14:00 +27°C° 0 mm 1 mps 759 mmHg 48%
    15:00 +27°C° 0 mm 1 mps 759 mmHg 48%
    16:00 +26°C° 0 mm 1 mps 759 mmHg 53%
    17:00 +25°C° 0 mm 1 mps 758 mmHg 58%
    18:00 +24°C° 0 mm 2 mps 758 mmHg 64%
    19:00 +23°C° 0 mm 2 mps 758 mmHg 65%
    20:00 +21°C° 0 mm 2 mps 758 mmHg 67%
    21:00 +21°C° 0 mm 2 mps 758 mmHg 68%
    22:00 +20°C° 0.1 mm 2 mps 758 mmHg 70%
    23:00 +20°C° 0.1 mm 2 mps 758 mmHg 71%

    26 August, Saturday

    Time Temperature Precipitation Wind Pressure Humidity
    00:00 +20°C° 0.1 mm 2 mps 758 mmHg 73%
    01:00 +19°C° 0 mm 2 mps 757 mmHg 75%
    02:00 +20°C° 0 mm 1 mps 757 mmHg 78%
    03:00 +20°C° 0 mm 1 mps 757 mmHg 80%
    04:00 +20°C° 0 mm 1 mps 757 mmHg 81%
    05:00 +20°C° 0 mm 1 mps 757 mmHg 82%
    06:00 +21°C° 0 mm 1 mps 757 mmHg 82%
    07:00 +22°C° 0 mm 1 mps 757 mmHg 78%
    08:00 +24°C° 0 mm 1 mps 757 mmHg 73%
    09:00 +25°C° 0 mm 1 mps 757 mmHg 68%
    10:00 +26°C° 0.1 mm 1 mps 757 mmHg 67%
    11:00 +26°C° 0.1 mm 2 mps 757 mmHg 65%
    12:00 +27°C° 0.1 mm 2 mps 757 mmHg 63%
    13:00 +27°C° 0.1 mm 2 mps 757 mmHg 62%
    14:00 +28°C° 0.1 mm 2 mps 757 mmHg 61%
    15:00 +28°C° 0.1 mm 3 mps 757 mmHg 60%
    16:00 +27°C° 0 mm 3 mps 757 mmHg 65%
    17:00 +25°C° 0 mm 2 mps 757 mmHg 70%
    18:00 +24°C° 0 mm 2 mps 757 mmHg 74%
    19:00 +23°C° 0.1 mm 2 mps 758 mmHg 76%
    20:00 +21°C° 0.1 mm 2 mps 758 mmHg 78%
    21:00 +19°C° 0.1 mm 2 mps 758 mmHg 80%
    22:00 +19°C° 0 mm 2 mps 758 mmHg 82%
    23:00 +18°C° 0 mm 2 mps 758 mmHg 83%

    27 August, Sunday

    Time Temperature Precipitation Wind Pressure Humidity
    00:00 +18°C° 0 mm 1 mps 758 mmHg 85%
    01:00 +18°C° 0 mm 1 mps 758 mmHg 86%
    02:00 +18°C° 0 mm 1 mps 758 mmHg 87%
    03:00 +16°C° 0 mm 1 mps 758 mmHg 88%
    04:00 +18°C° 0 mm 1 mps 758 mmHg 87%
    05:00 +18°C° 0 mm 1 mps 758 mmHg 86%
    06:00 +16°C° 0 mm 0 mps 759 mmHg 86%
    07:00 +20°C° 0 mm 1 mps 759 mmHg 79%
    08:00 +22°C° 0 mm 1 mps 759 mmHg 73%
    09:00 +23°C° 0 mm 1 mps 759 mmHg 66%
    10:00 +24°C° 0 mm 1 mps 759 mmHg 62%
    11:00 +25°C° 0 mm 1 mps 759 mmHg 59%
    12:00 +26°C° 0 mm 2 mps 759 mmHg 55%
    13:00 +26°C° 0 mm 2 mps 759 mmHg 56%
    14:00 +26°C° 0 mm 2 mps 759 mmHg 57%
    15:00 +26°C° 0 mm 3 mps 758 mmHg 58%
    16:00 +25°C° 0 mm 2 mps 759 mmHg 63%
    17:00 +24°C° 0 mm 2 mps 759 mmHg 68%
    18:00 +21°C° 0 mm 2 mps 759 mmHg 73%
    19:00 +20°C° 0 mm 2 mps 759 mmHg 77%
    20:00 +19°C° 0 mm 2 mps 759 mmHg 81%
    21:00 +17°C° 0 mm 2 mps 760 mmHg 85%
    22:00 +18°C° 0 mm 1 mps 760 mmHg 86%
    23:00 +16°C° 0 mm 1 mps 760 mmHg 87%

    28 August, Monday

    Time Temperature Precipitation Wind Pressure Humidity
    00:00 +15°C° 0 mm 1 mps 760 mmHg 88%
    01:00 +15°C° 0 mm 1 mps 760 mmHg 88%
    02:00 +15°C° 0 mm 1 mps 760 mmHg 88%
    03:00 +15°C° 0 mm 1 mps 760 mmHg 88%
    04:00 +15°C° 0 mm 1 mps 760 mmHg 87%
    05:00 +15°C° 0 mm 1 mps 760 mmHg 86%
    06:00 +16°C° 0 mm 1 mps 760 mmHg 85%
    07:00 +19°C° 0 mm 1 mps 761 mmHg 77%
    08:00 +21°C° 0 mm 1 mps 761 mmHg 70%
    09:00 +23°C° 0 mm 2 mps 761 mmHg 62%
    10:00 +24°C° 0 mm 2 mps 761 mmHg 59%
    11:00 +25°C° 0 mm 2 mps 761 mmHg 55%
    12:00 +26°C° 0 mm 3 mps 761 mmHg 51%
    13:00 +26°C° 0 mm 3 mps 760 mmHg 51%
    14:00 +26°C° 0 mm 3 mps 760 mmHg 51%
    15:00 +27°C° 0 mm 3 mps 760 mmHg 51%
    16:00 +25°C° 0 mm 3 mps 760 mmHg 56%
    17:00 +24°C° 0 mm 2 mps 760 mmHg 61%
    18:00 +23°C° 0 mm 2 mps 760 mmHg 66%
    19:00 +21°C° 0 mm 2 mps 760 mmHg 69%
    20:00 +19°C° 0 mm 2 mps 760 mmHg 73%
    21:00 +19°C° 0 mm 1 mps 761 mmHg 76%
    22:00 +18°C° 0 mm 1 mps 760 mmHg 77%
    23:00 +18°C° 0 mm 1 mps 760 mmHg 78%
    Show more